When you browse on this site, cookies collect data to enhance your experience and personalize the content and advertising you see.
Visit our Privacy Policy to learn more. By continuing to use the site, you agree to this use of cookies and data.
  • In Switzerland
  • List of Countries
  • For 7 days
  • Water Temperature
  • Weather Map
  • Weather Widgets
  • user-avatar
    Login

    Hourly Weather Tarin Kowt

    Today, 21 February, Friday

    Time Temperature Precipitation Wind Pressure Humidity
    00:00 +5°C° 0 mm 1 mps 617 mmHg 40%
    01:00 +5°C° 0 mm 1 mps 617 mmHg 40%
    02:00 +4°C° 0 mm 2 mps 617 mmHg 41%
    03:00 +4°C° 0 mm 2 mps 617 mmHg 42%
    04:00 +4°C° 0 mm 2 mps 617 mmHg 44%
    05:00 +4°C° 0 mm 2 mps 617 mmHg 44%
    06:00 +4°C° 0 mm 2 mps 618 mmHg 43%
    07:00 +4°C° 0 mm 3 mps 618 mmHg 43%
    08:00 +5°C° 0 mm 3 mps 618 mmHg 38%
    09:00 +7°C° 0 mm 3 mps 619 mmHg 34%
    10:00 +9°C° 0 mm 3 mps 619 mmHg 29%
    17:00 +13°C° 0 mm 1 mps 619 mmHg 30%
    18:00 +12°C° 0 mm 1 mps 620 mmHg 35%
    19:00 +11°C° 0 mm 1 mps 620 mmHg 40%
    20:00 +11°C° 0 mm 1 mps 620 mmHg 40%
    21:00 +10°C° 0 mm 2 mps 620 mmHg 39%
    22:00 +9°C° 0 mm 2 mps 620 mmHg 39%
    23:00 +9°C° 0 mm 2 mps 620 mmHg 40%

    Tomorrow, 22 February, Saturday

    Time Temperature Precipitation Wind Pressure Humidity
    00:00 +9°C° 0 mm 2 mps 620 mmHg 40%
    01:00 +8°C° 0 mm 2 mps 620 mmHg 41%
    02:00 +8°C° 0 mm 2 mps 620 mmHg 42%
    03:00 +8°C° 0 mm 2 mps 620 mmHg 43%
    04:00 +8°C° 0 mm 2 mps 619 mmHg 44%
    05:00 +7°C° 0 mm 2 mps 620 mmHg 46%
    06:00 +7°C° 0 mm 2 mps 620 mmHg 47%
    07:00 +7°C° 0 mm 2 mps 620 mmHg 48%
    08:00 +8°C° 0 mm 2 mps 621 mmHg 46%
    09:00 +10°C° 0 mm 2 mps 621 mmHg 44%
    10:00 +11°C° 0 mm 3 mps 622 mmHg 42%
    11:00 +13°C° 0 mm 2 mps 622 mmHg 40%
    12:00 +14°C° 0 mm 2 mps 622 mmHg 39%
    13:00 +15°C° 0 mm 2 mps 621 mmHg 37%
    14:00 +15°C° 0 mm 2 mps 621 mmHg 37%
    15:00 +15°C° 0 mm 2 mps 621 mmHg 37%
    16:00 +15°C° 0 mm 2 mps 621 mmHg 36%
    17:00 +14°C° 0 mm 1 mps 621 mmHg 42%
    18:00 +13°C° 0 mm 1 mps 621 mmHg 47%
    19:00 +12°C° 0 mm 1 mps 621 mmHg 52%
    20:00 +12°C° 0 mm 1 mps 621 mmHg 53%
    21:00 +11°C° 0 mm 1 mps 621 mmHg 54%
    22:00 +10°C° 0 mm 2 mps 620 mmHg 56%
    23:00 +9°C° 0 mm 2 mps 620 mmHg 57%

    Day after tomorrow, 23 February, Sunday

    Time Temperature Precipitation Wind Pressure Humidity
    00:00 +9°C° 0 mm 2 mps 620 mmHg 58%
    01:00 +8°C° 0 mm 2 mps 619 mmHg 59%
    02:00 +8°C° 0 mm 2 mps 619 mmHg 60%
    03:00 +7°C° 0 mm 2 mps 618 mmHg 61%
    04:00 +7°C° 0 mm 2 mps 618 mmHg 62%
    05:00 +7°C° 0 mm 2 mps 618 mmHg 62%
    06:00 +7°C° 0 mm 2 mps 618 mmHg 61%
    07:00 +7°C° 0 mm 2 mps 619 mmHg 60%
    08:00 +8°C° 0 mm 2 mps 619 mmHg 55%
    09:00 +9°C° 0 mm 2 mps 620 mmHg 50%
    10:00 +12°C° 0 mm 2 mps 620 mmHg 44%
    11:00 +13°C° 0 mm 2 mps 620 mmHg 42%
    12:00 +14°C° 0 mm 1 mps 620 mmHg 40%
    13:00 +15°C° 0 mm 1 mps 620 mmHg 37%
    14:00 +15°C° 0 mm 1 mps 619 mmHg 37%
    15:00 +15°C° 0 mm 1 mps 619 mmHg 37%
    16:00 +15°C° 0 mm 1 mps 619 mmHg 36%
    17:00 +14°C° 0 mm 1 mps 619 mmHg 42%
    18:00 +13°C° 0 mm 1 mps 619 mmHg 47%
    19:00 +12°C° 0 mm 1 mps 619 mmHg 53%
    20:00 +12°C° 0 mm 1 mps 619 mmHg 54%
    21:00 +11°C° 0 mm 1 mps 618 mmHg 55%
    22:00 +10°C° 0 mm 1 mps 618 mmHg 56%
    23:00 +10°C° 0 mm 1 mps 618 mmHg 56%

    24 February, Monday

    Time Temperature Precipitation Wind Pressure Humidity
    00:00 +10°C° 0 mm 1 mps 618 mmHg 57%
    01:00 +9°C° 0 mm 1 mps 617 mmHg 58%
    02:00 +9°C° 0 mm 1 mps 617 mmHg 58%
    03:00 +8°C° 0 mm 1 mps 617 mmHg 59%
    04:00 +8°C° 0 mm 1 mps 616 mmHg 60%
    05:00 +7°C° 0 mm 2 mps 617 mmHg 60%
    06:00 +7°C° 0 mm 2 mps 617 mmHg 61%
    07:00 +7°C° 0 mm 2 mps 617 mmHg 61%
    08:00 +8°C° 0 mm 2 mps 618 mmHg 55%
    09:00 +10°C° 0 mm 2 mps 619 mmHg 49%
    10:00 +12°C° 0 mm 2 mps 619 mmHg 44%
    11:00 +13°C° 0 mm 2 mps 619 mmHg 41%
    12:00 +14°C° 0 mm 2 mps 619 mmHg 38%
    13:00 +15°C° 0 mm 2 mps 619 mmHg 36%
    14:00 +15°C° 0 mm 2 mps 618 mmHg 35%
    15:00 +15°C° 0 mm 2 mps 618 mmHg 35%
    16:00 +15°C° 0 mm 2 mps 618 mmHg 35%
    17:00 +14°C° 0 mm 1 mps 618 mmHg 41%
    18:00 +13°C° 0 mm 1 mps 618 mmHg 47%
    19:00 +12°C° 0 mm 1 mps 618 mmHg 53%
    20:00 +12°C° 0 mm 1 mps 618 mmHg 54%
    21:00 +11°C° 0 mm 1 mps 618 mmHg 55%
    22:00 +11°C° 0 mm 1 mps 618 mmHg 56%
    23:00 +10°C° 0 mm 1 mps 618 mmHg 57%

    25 February, Tuesday

    Time Temperature Precipitation Wind Pressure Humidity
    00:00 +10°C° 0 mm 1 mps 617 mmHg 58%
    01:00 +9°C° 0 mm 1 mps 617 mmHg 59%
    02:00 +9°C° 0 mm 1 mps 617 mmHg 60%
    03:00 +8°C° 0 mm 1 mps 616 mmHg 60%
    04:00 +8°C° 0 mm 1 mps 616 mmHg 61%
    05:00 +8°C° 0 mm 1 mps 616 mmHg 61%
    06:00 +8°C° 0 mm 1 mps 617 mmHg 60%
    07:00 +8°C° 0 mm 1 mps 617 mmHg 60%
    08:00 +9°C° 0 mm 1 mps 617 mmHg 54%
    09:00 +10°C° 0 mm 2 mps 618 mmHg 48%
    10:00 +12°C° 0 mm 2 mps 618 mmHg 41%
    11:00 +13°C° 0 mm 2 mps 618 mmHg 38%
    12:00 +14°C° 0 mm 1 mps 618 mmHg 34%
    13:00 +15°C° 0 mm 1 mps 618 mmHg 31%
    14:00 +15°C° 0 mm 1 mps 618 mmHg 30%
    15:00 +15°C° 0 mm 1 mps 617 mmHg 29%
    16:00 +16°C° 0 mm 1 mps 617 mmHg 29%
    17:00 +15°C° 0 mm 1 mps 617 mmHg 34%
    18:00 +14°C° 0 mm 1 mps 617 mmHg 39%
    19:00 +13°C° 0 mm 1 mps 617 mmHg 45%
    20:00 +13°C° 0 mm 1 mps 617 mmHg 45%
    21:00 +12°C° 0 mm 1 mps 617 mmHg 46%
    22:00 +12°C° 0 mm 1 mps 618 mmHg 47%
    23:00 +12°C° 0 mm 1 mps 617 mmHg 47%

    26 February, Wednesday

    Time Temperature Precipitation Wind Pressure Humidity
    00:00 +12°C° 0 mm 1 mps 616 mmHg 48%
    01:00 +10°C° 0 mm 2 mps 616 mmHg 49%
    02:00 +10°C° 0 mm 2 mps 616 mmHg 49%
    03:00 +10°C° 0 mm 2 mps 615 mmHg 49%
    04:00 +9°C° 0 mm 2 mps 615 mmHg 50%
    05:00 +9°C° 0 mm 2 mps 615 mmHg 49%
    06:00 +9°C° 0 mm 2 mps 615 mmHg 48%
    07:00 +10°C° 0 mm 2 mps 615 mmHg 47%
    08:00 +12°C° 0 mm 2 mps 616 mmHg 41%
    09:00 +13°C° 0 mm 3 mps 616 mmHg 36%
    10:00 +14°C° 0 mm 3 mps 617 mmHg 30%
    11:00 +15°C° 0 mm 4 mps 616 mmHg 30%
    12:00 +16°C° 0 mm 5 mps 616 mmHg 30%
    13:00 +17°C° 0 mm 5 mps 615 mmHg 31%
    14:00 +17°C° 0 mm 6 mps 615 mmHg 32%
    15:00 +17°C° 0 mm 6 mps 615 mmHg 33%
    16:00 +19°C° 0 mm 6 mps 615 mmHg 34%
    17:00 +17°C° 0 mm 5 mps 614 mmHg 37%
    18:00 +17°C° 0 mm 4 mps 614 mmHg 41%
    19:00 +16°C° 0 mm 3 mps 614 mmHg 44%
    20:00 +14°C° 0 mm 3 mps 613 mmHg 47%
    21:00 +13°C° 0 mm 3 mps 613 mmHg 50%
    22:00 +13°C° 0 mm 3 mps 613 mmHg 53%
    23:00 +12°C° 0 mm 3 mps 613 mmHg 54%
    Show more